TimeEET,TemperatureF,Dew PointF,Humidity,Sea Level PressureIn,VisibilityMPH,Wind Direction,Wind SpeedMPH,Gust SpeedMPH,PrecipitationIn,Events,Conditions,WindDirDegrees,DateUTC
12:20 AM,48.2,42.8,82,29.71,6.2,NNE,5.8,-,N/A,,Mostly Cloudy,30,2013-01-30 22:20:00
12:50 AM,48.2,41.0,76,29.71,6.2,NE,8.1,-,N/A,,Mostly Cloudy,40,2013-01-30 22:50:00
1:20 AM,48.2,39.2,71,29.71,6.2,NE,9.2,-,N/A,,Mostly Cloudy,50,2013-01-30 23:20:00
1:50 AM,46.4,41.0,81,29.68,6.2,NE,6.9,-,N/A,,Mostly Cloudy,50,2013-01-30 23:50:00
2:00 AM,46,40,74,29.71,6,NE,6.9,,,,Partly Cloudy,50,2013-01-31 00:00:00
2:20 AM,46.4,41.0,81,29.68,6.2,NNE,5.8,-,N/A,,Mostly Cloudy,20,2013-01-31 00:20:00
2:50 AM,48.2,41.0,76,29.68,6.2,NNE,9.2,-,N/A,,Mostly Cloudy,20,2013-01-31 00:50:00
3:20 AM,48.2,41.0,76,29.65,6.2,NNE,8.1,-,N/A,,Mostly Cloudy,20,2013-01-31 01:20:00
3:50 AM,48.2,41.0,76,29.65,6.2,NNE,4.6,-,N/A,,Mostly Cloudy,30,2013-01-31 01:50:00
4:50 AM,46.4,39.2,76,29.65,6.2,NNE,6.9,-,N/A,,Mostly Cloudy,20,2013-01-31 02:50:00
5:20 AM,46.4,41.0,81,29.65,6.2,NNE,6.9,-,N/A,,Mostly Cloudy,30,2013-01-31 03:20:00
5:50 AM,46.4,41.0,81,29.65,6.2,NNE,5.8,-,N/A,,Mostly Cloudy,30,2013-01-31 03:50:00
6:20 AM,46.4,39.2,76,29.65,6.2,NE,9.2,-,N/A,,Mostly Cloudy,50,2013-01-31 04:20:00
6:50 AM,46.4,39.2,76,29.65,6.2,NE,4.6,-,N/A,,Mostly Cloudy,40,2013-01-31 04:50:00
7:20 AM,46.4,39.2,76,29.65,6.2,NNE,4.6,-,N/A,,Mostly Cloudy,30,2013-01-31 05:20:00
7:50 AM,48.2,41.0,76,29.65,6.2,NNE,6.9,-,N/A,,Mostly Cloudy,30,2013-01-31 05:50:00
8:00 AM,47,40,71,29.67,6,NNE,6.9,,,,Partly Cloudy,30,2013-01-31 06:00:00
8:20 AM,50.0,39.2,66,29.65,6.2,ENE,5.8,-,N/A,,Mostly Cloudy,70,2013-01-31 06:20:00
8:50 AM,51.8,41.0,67,29.65,6.2,NNE,4.6,-,N/A,,Mostly Cloudy,30,2013-01-31 06:50:00
9:20 AM,51.8,39.2,62,29.68,6.2,ENE,11.5,-,N/A,,Mostly Cloudy,60,2013-01-31 07:20:00
9:50 AM,53.6,39.2,58,29.68,6.2,ENE,11.5,-,N/A,,Mostly Cloudy,60,2013-01-31 07:50:00
10:20 AM,55.4,39.2,54,29.68,6.2,NE,13.8,-,N/A,,Mostly Cloudy,50,2013-01-31 08:20:00
10:50 AM,57.2,39.2,51,29.65,6.2,East,9.2,-,N/A,,Mostly Cloudy,80,2013-01-31 08:50:00
11:20 AM,57.2,39.2,51,29.65,6.2,ENE,10.4,-,N/A,,Mostly Cloudy,70,2013-01-31 09:20:00
11:50 AM,59.0,37.4,45,29.65,6.2,ENE,8.1,-,N/A,,Mostly Cloudy,70,2013-01-31 09:50:00
12:20 PM,59.0,37.4,45,29.65,6.2,ENE,9.2,-,N/A,,Mostly Cloudy,60,2013-01-31 10:20:00
12:50 PM,60.8,35.6,39,29.62,6.2,East,9.2,-,N/A,,Mostly Cloudy,80,2013-01-31 10:50:00
1:20 PM,59.0,37.4,45,29.62,6.2,East,3.5,-,N/A,,Mostly Cloudy,80,2013-01-31 11:20:00
1:50 PM,59.0,37.4,45,29.62,6.2,East,6.9,-,N/A,,Mostly Cloudy,90,2013-01-31 11:50:00
2:00 PM,60,38,32,29.64,6,East,6.9,,,,Partly Cloudy,90,2013-01-31 12:00:00
2:20 PM,60.8,39.2,45,29.62,6.2,East,4.6,-,N/A,,Mostly Cloudy,80,2013-01-31 12:20:00
2:50 PM,59.0,39.2,48,29.65,6.2,SE,4.6,-,N/A,,Mostly Cloudy,140,2013-01-31 12:50:00
3:20 PM,59.0,39.2,48,29.65,6.2,SE,6.9,-,N/A,,Mostly Cloudy,140,2013-01-31 13:20:00
3:50 PM,59.0,39.2,48,29.65,6.2,South,2.3,-,N/A,,Mostly Cloudy,180,2013-01-31 13:50:00
4:20 PM,57.2,44.6,63,29.65,6.2,SW,9.2,-,N/A,,Mostly Cloudy,230,2013-01-31 14:20:00
4:50 PM,53.6,44.6,72,29.68,6.2,SW,8.1,-,N/A,,Mostly Cloudy,220,2013-01-31 14:50:00
5:20 PM,51.8,44.6,76,29.68,6.2,SW,5.8,-,N/A,,Mostly Cloudy,220,2013-01-31 15:20:00
5:50 PM,51.8,44.6,76,29.68,6.2,SSW,4.6,-,N/A,,Mostly Cloudy,200,2013-01-31 15:50:00
6:20 PM,51.8,44.6,76,29.68,6.2,SW,2.3,-,N/A,,Mostly Cloudy,230,2013-01-31 16:20:00
6:50 PM,51.8,44.6,76,29.68,6.2,West,3.5,-,N/A,,Mostly Cloudy,270,2013-01-31 16:50:00
7:20 PM,50.0,44.6,82,29.71,6.2,Calm,Calm,-,N/A,,Mostly Cloudy,0,2013-01-31 17:20:00
7:50 PM,48.2,44.6,87,29.71,6.2,NE,2.3,-,N/A,,Mostly Cloudy,50,2013-01-31 17:50:00
8:00 PM,49,44,77,29.72,6,NE,2.3,,,,Partly Cloudy,50,2013-01-31 18:00:00
8:20 PM,48.2,44.6,87,29.71,6.2,NW,2.3,-,N/A,,Scattered Clouds,320,2013-01-31 18:20:00
8:50 PM,48.2,44.6,87,29.71,6.2,NNE,5.8,-,N/A,,Mostly Cloudy,20,2013-01-31 18:50:00
9:20 PM,48.2,46.4,93,29.71,6.2,NNE,5.8,-,N/A,,Mostly Cloudy,20,2013-01-31 19:20:00
9:50 PM,48.2,46.4,93,29.71,6.2,NE,6.9,-,N/A,,Mostly Cloudy,40,2013-01-31 19:50:00
10:20 PM,48.2,44.6,87,29.71,6.2,ENE,5.8,-,N/A,,Mostly Cloudy,60,2013-01-31 20:20:00
10:50 PM,46.4,42.8,87,29.71,6.2,NNE,4.6,-,N/A,,Mostly Cloudy,30,2013-01-31 20:50:00
11:20 PM,48.2,41.0,76,29.71,6.2,NNE,5.8,-,N/A,,Mostly Cloudy,30,2013-01-31 21:20:00
11:50 PM,46.4,41.0,81,29.74,6.2,NE,2.3,-,N/A,,Mostly Cloudy,40,2013-01-31 21:50:00